FENGYUN 1C DEB

Satellite information

Favourite Embed

Satellite Type and Status

DEBRISIN ORBIT

Key statistics

Satellite FENGYUN 1C DEB at a glance.

Uptime

9557

Days in orbit

Revolutions

≈ 14.1

Per day

Orbit

SSO

Sun Synchronous Orbit

Inclination

98.0

Latest

Satellite identification and parameters

Extended collection of information and parameters for FENGYUN 1C DEB.

Object identification

Identified? True

Debris? True

Object name: FENGYUN 1C DEB

International designator: 1999-025ESZ

Object number (NORAD): 38514

Object ID (CCSDS): 38514

Country: PEOPLES REPUBLIC OF CHINA (PRC)

Current information (Y/N): Y

RCS size: SMALL

Orbital parameters

Period: 102.125 minutes

Inclination: 98.0462 deg

SMA: 7237.391 km

Apoapsis: 1072.793 km

Periapsis: 645.719 km

RAAN: 234.9648 deg

Eccentricy: 0.0295047

Argument of periapsis: 109.9473 deg

Mean anomaly: 253.3736 deg

Mean motion: 14.10034532 rev/day

Mean motion (dot): 0.00010885 rev/day2

B* drag term: 0.0041187 1/REarth

Two-line elements (TLE)

Creation date: July 9, 2025, 2:22 a.m.

Reference frame: TEME

Reference center: EARTH

Epoch: July 8, 2025, 8:11 p.m. UTC

TLE line 0: 0 FENGYUN 1C DEB

TLE line 1: 1 38514U 99025ESZ 25189.84158479 .00010885 00000-0 41187-2 0 9992

TLE line 2: 2 38514 98.0462 234.9648 0295047 109.9473 253.3736 14.10034532857819

Live tracking on map

Real-time ground track for satellite FENGYUN 1C DEB.

In-orbit conjunctions

A list of the most updated potential collisions computed for object FENGYUN 1C DEB.

Target Orbit TCA Probability of collision Miss distance Type
SL-8 R/B LEO 2025-04-12 15:17:47 0.0007134704 130.0 (m) ROCKET BODY
CZ-6A DEB LEO 2025-03-27 15:05:33 0.0001103144 27.0 (m) DEBRIS
COSMOS 2251 DEB LEO 2024-06-15 20:58:37 0.0001099303 75.0 (m) DEBRIS

Associated space launch

Chinese polar orbiting meteorological satellite

FENGYUN 1C DEB was lifted into orbit during the mission ‘Long March 4B | Feng Yun 1C’, on board a Long March 4B space rocket.

The launch took place on May 10, 1999, 1:33 a.m. from Launch Complex 7.

For more information about the launch, click the button.

Launch to space Long March 4B | Feng Yun 1C
Long March 4B | Feng Yun 1C

Agency: N/A

Status: Launch Successful

Launch date: May 10, 1999, 1:33 a.m. UTC

Rocket: Long March 4B

Launch pad: Launch Complex 7

Location: Taiyuan Satellite Launch Center, People's Republic of China

...

Latest news about this satellite

There are no fresh news available about this satellite. Check back as we update our databases every day.


Newsletter sign-up

Weekly statistics, charts and insights to help you stay on top of the space industry.